Погода в Талом

Россия / Республика Коми     64°36′50″N   55°41′18″E
темп.,
°C
ветер,
м/с
пор.,
м/с
влажн.,
%
обл.,
%
осадки,
мм/ч
давл.,
гПа
погр.,
м
29 июля, чт
чт2900:00+6зсз2499100 0.3 1006192
03:00+6ссз1399100 0.7 1006146
06:00+7ссз2395100 0.1 1006213
09:00+9с2385100 0.4 1006644
12:00+10ссв1275100 0.3 1006772
15:00+13сз215989 0.5 10061241
18:00+12ссз116513 0.2 1005610
21:00+6ссв1193100 0.2 100510
30 июля, пт
пт3000:00+6ю009516 0.0 100510
03:00+5св11965 0.0 100410
06:00+10всв12765 0.0 1004321
09:00+14св22505 0.0 10021308
12:00+17с124181 0.0 10021952
15:00+15ссв3346100 0.0 10021086
18:00+14ссв235692 0.0 1003449
21:00+10св117055 0.0 100311
31 июля, сб
сб3100:00+7зюз11864 0.0 100410
03:00+6ююз11885 0.0 100510
06:00+12ю1261100 0.0 1005252
09:00+16ююв344794 0.0 1004741
12:00+19ю4541100 0.0 10021230
15:00+19ююв3644100 0.0 10011521
18:00+16вюв31057100 0.0 999418
21:00+12вюв41294100 1.8 998437
1 августа, вс
вс100:00+12вюв3999100 3.4 996349
03:00+12юв139978 3.6 995116
06:00+14зюз279897 0.1 996437
09:00+15з4783100 0.2 997770
12:00+16з4775100 0.1 999808
15:00+20зсз3657100 0.1 10001419
18:00+16з2689100 2.7 1001180
21:00+13юз229540 2.9 100237
2 августа, пн
пн200:00+12юз24965 0.0 100271
03:00+13юз239666 0.0 100273
06:00+15ююз2493100 0.0 1002168
09:00+19ююз3670100 0.4 1002426
12:00+15ю2797100 1.4 1002418
15:00+16юз3693100 2.0 1002536
18:00+16юз389539 1.6 1002505
21:00+13зюз259975 2.1 1003124